User: anonymous   Login
Location: Terra Rouge Observatory
(46.0000°N, 62.7500°W)
Time: 09:06:44
(UTC-03:00)
Language:

Landsat 5 - Orbit

View from above orbital plane
View from above orbital plane
View from above satellite
View from above satellite

Ground track
Ground track

The orbit data is extracted from the following two-line orbital elements,

1 14780U 84021A   16181.86582108  .00000090  00000-0  14708-4 0  9993
2 14780  98.0252 281.4756 0090190 248.8927 110.2631 14.91162784723368
Epoch (UTC): 29 June 2016 20:46:46
Eccentricity: 0.0090190
inclination: 98.0252°
perigee height: 531 km
apogee height: 657 km
right ascension of ascending node: 281.4756°
argument of perigee: 248.8927°
revolutions per day: 14.91162784
mean anomaly at epoch: 110.2631°
orbit number at epoch: 72336

The dashed part of the orbit path shows where the satellite is in the earth's shadow,  

DLR